Daviess Cnty AP, Washington,, IN

4:54 PM EDT on October 21, 2019 (GMT -0400)
Daviess County

Weather History for KDCY - August, 2019

Change the Weather History Date:

Sunday, August 18, 2019

  Actual Average (WUND) Record (WUND)
Temperature  
Mean Temperature 78 °F -  
Max Temperature 88 °F - - (-1)
Min Temperature 68 °F - - (-1)
Cooling Degree Days 13    
Growing Degree Days 28 (Base 50)    
Moisture  
Dew Point 71 °F    
Average Humidity 87    
Maximum Humidity 99    
Minimum Humidity 59    
Precipitation  
Precipitation 0.01 in - - ()
Sea Level Pressure  
Sea Level Pressure 29.92 in    
Wind  
Wind Speed 5 mph (SSW)    
Max Wind Speed 17 mph    
Max Gust Speed 26 mph    
Visibility 10 miles    
Events Rain , Thunderstorm    
Averages and records for this station are not official NWS values.
T = Trace of Precipitation, MM = Missing Value Source: NWS Daily Summary

Daily Weather History Graph

Daily Weather History Graph

Search for Another Location

Airport or City:

Astronomy

Aug. 18, 2019 Rise Set
Actual Time 7:04 AM EDT 8:39 PM EDT
Civil Twilight 6:36 AM EDT 9:07 PM EDT
Nautical Twilight 6:02 AM EDT 9:41 PM EDT
Astronomical Twilight 5:26 AM EDT 10:16 PM EDT
Moon 10:35 PM EDT (8/18) 9:48 AM EDT (8/18)
Length of Visible Light 14h 30m
Length of Day
13h 34m
Waning Gibbous, 91% of the Moon is Illuminated
Aug 18
Waning Gibbous
Aug 23
Last Quarter
Aug 30
New
Sep 5
First Quarter
Sep 14
Full

Hourly Weather History & Observations

Time (EDT) Temp. Heat Index Dew Point Humidity Pressure Visibility Wind Dir Wind Speed Gust Speed Precip Events Conditions
12:15 AM 74.3 °F - 73.9 °F 99% 29.93 in 10.0 mi SSE 5.8 mph - N/A   Clear
12:35 AM 74.5 °F - 74.3 °F 99% 29.92 in 10.0 mi SSE 5.8 mph - N/A   Clear
12:55 AM 75.0 °F - 74.7 °F 99% 29.93 in 10.0 mi SSW 6.9 mph - N/A   Clear
1:15 AM 76.5 °F - 75.6 °F 97% 29.91 in 10.0 mi South 10.4 mph - N/A   Clear
1:35 AM 77.4 °F - 74.8 °F 92% 29.92 in 10.0 mi WSW 3.5 mph - N/A   Clear
1:55 AM 75.2 °F - 74.7 °F 98% 29.93 in 10.0 mi SSE 3.5 mph - N/A   Clear
2:15 AM 74.1 °F - 73.8 °F 99% 29.93 in 10.0 mi Calm Calm - N/A   Clear
2:35 AM 72.7 °F - 72.5 °F 99% 29.92 in 10.0 mi Calm Calm - N/A   Clear
2:55 AM 72.3 °F - 71.8 °F 98% 29.91 in 10.0 mi South 4.6 mph - N/A   Clear
3:15 AM 73.0 °F - 72.7 °F 99% 29.91 in 10.0 mi Calm Calm - N/A   Clear
3:35 AM 71.6 °F - 71.2 °F 99% 29.91 in 10.0 mi Calm Calm - N/A   Clear
3:55 AM 71.6 °F - 71.1 °F 98% 29.91 in 10.0 mi Calm Calm - N/A   Clear
4:15 AM 70.7 °F - 70.5 °F 99% 29.91 in 7.0 mi Calm Calm - N/A   Clear
4:35 AM 69.8 °F - 69.4 °F 99% 29.90 in 7.0 mi Calm Calm - N/A   Clear
4:55 AM 69.8 °F - 69.4 °F 99% 29.90 in 7.0 mi Calm Calm - N/A   Clear
5:15 AM 70.3 °F - 70.0 °F 99% 29.91 in 10.0 mi Calm Calm - N/A   Clear
5:35 AM 68.9 °F - 68.7 °F 99% 29.90 in 7.0 mi Calm Calm - N/A   Clear
5:55 AM 68.9 °F - 68.5 °F 99% 29.91 in 7.0 mi Calm Calm - N/A   Clear
6:15 AM 69.8 °F - 69.6 °F 99% 29.92 in 7.0 mi SE 3.5 mph - N/A   Clear
6:35 AM 69.3 °F - 68.9 °F 99% 29.92 in 7.0 mi Calm Calm - N/A   Clear
6:55 AM 70.3 °F - 70.0 °F 99% 29.92 in 7.0 mi South 4.6 mph - N/A   Clear
7:15 AM 70.7 °F - 70.5 °F 99% 29.93 in 7.0 mi South 4.6 mph - N/A   Clear
7:35 AM 71.1 °F - 70.9 °F 99% 29.92 in 10.0 mi South 4.6 mph - N/A   Clear
7:55 AM 71.6 °F - 71.2 °F 99% 29.93 in 10.0 mi South 4.6 mph - N/A   Clear
8:15 AM 72.1 °F - 71.8 °F 99% 29.94 in 10.0 mi South 4.6 mph - N/A   Clear
8:35 AM 73.8 °F - 73.4 °F 99% 29.94 in 10.0 mi South 4.6 mph - N/A   Clear
8:55 AM 74.1 °F - 73.8 °F 99% 29.94 in 10.0 mi South 4.6 mph - N/A   Clear
9:15 AM 75.9 °F - 74.3 °F 95% 29.95 in 10.0 mi SSW 5.8 mph - N/A   Clear
9:35 AM 78.1 °F - 73.6 °F 86% 29.95 in 10.0 mi SSW 6.9 mph - N/A   Clear
9:55 AM 80.4 °F 84.7 °F 72.7 °F 77% 29.95 in 10.0 mi SSW 9.2 mph - N/A   Clear
10:15 AM 82.8 °F 87.4 °F 71.1 °F 68% 29.95 in 10.0 mi SSW 6.9 mph - N/A   Clear
10:35 AM 82.9 °F 87.5 °F 71.1 °F 67% 29.96 in 10.0 mi SSW 10.4 mph - N/A   Clear
10:55 AM 84.2 °F 89.3 °F 71.2 °F 65% 29.96 in 10.0 mi SSW 9.2 mph - N/A   Clear
11:15 AM 84.7 °F 90.0 °F 71.2 °F 64% 29.96 in 10.0 mi SW 10.4 mph 16.1 mph N/A   Clear
11:35 AM 85.8 °F 91.8 °F 72.0 °F 63% 29.97 in 10.0 mi SW 10.4 mph - N/A   Scattered Clouds
11:55 AM 86.0 °F 91.5 °F 71.1 °F 61% 29.96 in 10.0 mi SSW 11.5 mph - N/A   Clear
12:15 PM 86.7 °F 92.9 °F 71.6 °F 61% 29.96 in 10.0 mi SW 11.5 mph 16.1 mph N/A   Clear
12:35 PM - - - N/A% 29.96 in 10.0 mi SW 12.7 mph 17.3 mph N/A   Scattered Clouds
12:55 PM 86.5 °F 92.5 °F 71.4 °F 61% 29.96 in 10.0 mi SSW 6.9 mph - N/A   Clear
1:15 PM 87.8 °F 94.3 °F 71.8 °F 59% 29.95 in 10.0 mi SW 8.1 mph - N/A   Clear
1:35 PM - - - N/A% 29.94 in 10.0 mi SW 10.4 mph - N/A   Clear
1:55 PM - - - N/A% 29.93 in 10.0 mi South 11.5 mph - N/A   Clear
2:15 PM - - - N/A% 29.93 in 10.0 mi SW 10.4 mph - N/A   Clear
2:35 PM - - - N/A% 29.93 in 10.0 mi SW 8.1 mph - N/A   Clear
2:55 PM - - - N/A% 29.92 in 10.0 mi SSW 8.1 mph - N/A   Clear
3:15 PM - - - N/A% 29.92 in 10.0 mi WSW 8.1 mph - N/A   Scattered Clouds
3:35 PM 87.8 °F 94.7 °F 72.1 °F 60% 29.92 in 10.0 mi WSW 8.1 mph - N/A   Mostly Cloudy
3:55 PM - - - N/A% 29.90 in 10.0 mi SSW 8.1 mph - N/A   Mostly Cloudy
4:15 PM 88.0 °F 94.7 °F 72.0 °F 59% 29.90 in 10.0 mi SSW 6.9 mph - N/A   Scattered Clouds
4:35 PM 86.9 °F 93.7 °F 72.7 °F 62% 29.90 in 10.0 mi SSW 5.8 mph - N/A   Clear
4:55 PM 85.3 °F 91.8 °F 72.9 °F 66% 29.89 in 10.0 mi South 6.9 mph - N/A   Scattered Clouds
5:35 PM 81.5 °F 87.6 °F 74.7 °F 80% 29.88 in 10.0 mi South 15.0 mph - N/A Rain Rain
5:55 PM 80.6 °F 85.7 °F 74.3 °F 81% 29.85 in 10.0 mi SSE 17.3 mph 26.5 mph N/A Rain , Thunderstorm Light Thunderstorms and Rain
6:15 PM 80.6 °F 85.5 °F 73.8 °F 80% 29.88 in 10.0 mi South 12.7 mph 19.6 mph N/A   Light Drizzle
6:35 PM 80.4 °F 85.3 °F 73.9 °F 81% 29.90 in 10.0 mi SW 12.7 mph 19.6 mph N/A Rain , Thunderstorm Light Thunderstorms and Rain
6:55 PM 75.6 °F - 70.5 °F 84% 29.90 in 10.0 mi SW 15.0 mph 25.3 mph 0.01 in Rain Light Rain
7:15 PM 73.6 °F - 67.8 °F 82% 29.90 in 10.0 mi WSW 10.4 mph 17.3 mph N/A Rain Light Rain
7:35 PM 72.9 °F - 66.7 °F 81% 29.88 in 10.0 mi SSW 6.9 mph - N/A   Scattered Clouds
7:55 PM 73.0 °F - 65.5 °F 77% 29.87 in 10.0 mi Calm Calm - N/A   Clear
8:15 PM 73.2 °F - 66.0 °F 78% 29.89 in 10.0 mi Calm Calm - N/A   Clear
8:35 PM 72.9 °F - 66.7 °F 81% 29.90 in 10.0 mi Calm Calm - N/A   Clear
8:55 PM 72.5 °F - 66.0 °F 80% 29.91 in 10.0 mi Calm Calm - N/A   Clear
9:15 PM 71.8 °F - 67.5 °F 86% 29.92 in 10.0 mi Calm Calm - N/A   Clear
9:35 PM 71.1 °F - 70.9 °F 99% 29.93 in 10.0 mi Calm Calm - N/A   Clear
9:55 PM 70.7 °F - 70.3 °F 99% 29.94 in 10.0 mi Calm Calm - N/A   Clear
10:15 PM 70.5 °F - 70.2 °F 99% 29.94 in 10.0 mi SE 3.5 mph - N/A   Clear
10:35 PM 70.9 °F - 70.7 °F 99% 29.94 in 10.0 mi Calm Calm - N/A   Mostly Cloudy
10:55 PM 71.1 °F - 70.7 °F 99% 29.95 in 10.0 mi Calm Calm - N/A   Overcast
11:15 PM 70.9 °F - 70.7 °F 99% 29.95 in 10.0 mi Calm Calm - N/A   Mostly Cloudy
11:35 PM 70.3 °F - 70.2 °F 99% 29.96 in 10.0 mi Calm Calm - N/A   Mostly Cloudy
11:55 PM 70.5 °F - 70.2 °F 99% 29.97 in 10.0 mi Calm Calm - N/A   Mostly Cloudy